TimeBST,TemperatureF,Dew PointF,Humidity,Sea Level PressureIn,VisibilityMPH,Wind Direction,Wind SpeedMPH,Gust SpeedMPH,PrecipitationIn,Events,Conditions,WindDirDegrees,DateUTC
12:20 AM,55.4,48.2,77,30.15,6.2,SW,11.5,-,N/A,,Overcast,230,2013-07-04 23:20:00
12:50 AM,53.6,48.2,82,30.15,6.2,SW,10.4,-,N/A,,Mostly Cloudy,230,2013-07-04 23:50:00
1:20 AM,53.6,48.2,82,30.15,6.2,WSW,9.2,-,N/A,,Mostly Cloudy,240,2013-07-05 00:20:00
1:50 AM,53.6,48.2,82,30.18,6.2,WSW,12.7,-,N/A,,Mostly Cloudy,240,2013-07-05 00:50:00
2:20 AM,53.6,48.2,82,30.18,6.2,WSW,10.4,-,N/A,,Mostly Cloudy,240,2013-07-05 01:20:00
2:50 AM,53.6,48.2,82,30.18,6.2,WSW,11.5,-,N/A,,Mostly Cloudy,240,2013-07-05 01:50:00
3:20 AM,55.4,48.2,77,30.18,6.2,SW,11.5,-,N/A,,Overcast,220,2013-07-05 02:20:00
3:50 AM,55.4,48.2,77,30.18,6.2,SW,12.7,-,N/A,,Overcast,230,2013-07-05 02:50:00
4:20 AM,55.4,48.2,77,30.18,6.2,SW,11.5,-,N/A,,Overcast,220,2013-07-05 03:20:00
4:50 AM,55.4,48.2,77,30.18,6.2,SW,13.8,-,N/A,,Overcast,230,2013-07-05 03:50:00
5:20 AM,55.4,50.0,82,30.21,6.2,SW,13.8,-,N/A,,Overcast,230,2013-07-05 04:20:00
5:50 AM,53.6,50.0,88,30.21,6.2,SW,9.2,-,N/A,,Overcast,220,2013-07-05 04:50:00
6:20 AM,55.4,50.0,82,30.21,6.2,SSW,11.5,-,N/A,,Overcast,210,2013-07-05 05:20:00
6:50 AM,55.4,51.8,88,30.24,3.1,WSW,18.4,-,N/A,Rain,Light Rain,240,2013-07-05 05:50:00
7:20 AM,53.6,51.8,94,30.24,6.2,WSW,16.1,-,N/A,,Mostly Cloudy,250,2013-07-05 06:20:00
7:50 AM,55.4,51.8,88,30.27,6.2,SW,15.0,-,N/A,,Mostly Cloudy,230,2013-07-05 06:50:00
8:20 AM,57.2,51.8,82,30.27,6.2,WSW,15.0,-,N/A,,Scattered Clouds,240,2013-07-05 07:20:00
8:50 AM,59.0,51.8,77,30.27,6.2,WSW,15.0,-,N/A,,Mostly Cloudy,240,2013-07-05 07:50:00
9:20 AM,60.8,51.8,72,30.27,6.2,WSW,15.0,-,N/A,,Scattered Clouds,240,2013-07-05 08:20:00
9:50 AM,60.8,51.8,72,30.30,6.2,WSW,15.0,-,N/A,,Partly Cloudy,250,2013-07-05 08:50:00
10:20 AM,60.8,50.0,68,30.30,6.2,West,15.0,-,N/A,,Mostly Cloudy,260,2013-07-05 09:20:00
10:50 AM,62.6,48.2,59,30.30,6.2,WSW,16.1,-,N/A,,Mostly Cloudy,250,2013-07-05 09:50:00
11:20 AM,60.8,50.0,68,30.30,6.2,West,15.0,-,N/A,,Scattered Clouds,260,2013-07-05 10:20:00
11:50 AM,62.6,48.2,59,30.30,6.2,West,15.0,-,N/A,,Scattered Clouds,260,2013-07-05 10:50:00
12:20 PM,62.6,48.2,59,30.33,6.2,West,13.8,-,N/A,,Scattered Clouds,270,2013-07-05 11:20:00
12:50 PM,64.4,50.0,59,30.33,6.2,West,15.0,-,N/A,,Partly Cloudy,270,2013-07-05 11:50:00
1:20 PM,66.2,50.0,56,30.33,6.2,West,15.0,-,N/A,,Partly Cloudy,260,2013-07-05 12:20:00
1:50 PM,64.4,50.0,59,30.30,6.2,West,16.1,-,N/A,,Partly Cloudy,260,2013-07-05 12:50:00
2:20 PM,66.2,51.8,60,30.30,6.2,West,16.1,-,N/A,,Partly Cloudy,260,2013-07-05 13:20:00
2:50 PM,66.2,51.8,60,30.33,6.2,West,13.8,-,N/A,,Partly Cloudy,260,2013-07-05 13:50:00
3:20 PM,68.0,51.8,56,30.33,6.2,WSW,13.8,-,N/A,,Partly Cloudy,240,2013-07-05 14:20:00
3:50 PM,68.0,53.6,60,30.33,6.2,WSW,16.1,-,N/A,,Partly Cloudy,250,2013-07-05 14:50:00
4:20 PM,66.2,51.8,60,30.33,6.2,WSW,16.1,-,N/A,,Partly Cloudy,250,2013-07-05 15:20:00
4:50 PM,66.2,53.6,64,30.33,6.2,WSW,11.5,-,N/A,,Scattered Clouds,250,2013-07-05 15:50:00
5:20 PM,66.2,53.6,64,30.33,6.2,West,10.4,-,N/A,,Partly Cloudy,270,2013-07-05 16:20:00
5:50 PM,66.2,53.6,64,30.33,6.2,WNW,8.1,-,N/A,,Partly Cloudy,290,2013-07-05 16:50:00
6:20 PM,66.2,53.6,64,30.33,6.2,West,9.2,-,N/A,,Unknown,280,2013-07-05 17:20:00
6:50 PM,66.2,53.6,64,30.33,6.2,West,6.9,-,N/A,,Partly Cloudy,280,2013-07-05 17:50:00
7:20 PM,66.2,53.6,64,30.33,6.2,WNW,6.9,-,N/A,,Partly Cloudy,300,2013-07-05 18:20:00
7:50 PM,64.4,53.6,68,30.33,6.2,WNW,4.6,-,N/A,,Scattered Clouds,300,2013-07-05 18:50:00
8:20 PM,64.4,53.6,68,30.33,6.2,Variable,3.5,-,N/A,,Scattered Clouds,0,2013-07-05 19:20:00
8:50 PM,62.6,53.6,72,30.33,6.2,Variable,2.3,-,N/A,,Partly Cloudy,0,2013-07-05 19:50:00
9:20 PM,60.8,53.6,77,30.33,6.2,WNW,3.5,-,N/A,,Partly Cloudy,290,2013-07-05 20:20:00
9:50 PM,60.8,53.6,77,30.36,6.2,Variable,3.5,-,N/A,,Partly Cloudy,0,2013-07-05 20:50:00
10:20 PM,57.2,53.6,88,30.36,-9999.0,WSW,4.6,-,N/A,,Clear,250,2013-07-05 21:20:00
10:50 PM,59.0,53.6,82,30.36,-9999.0,SW,8.1,-,N/A,,Clear,220,2013-07-05 21:50:00
11:20 PM,57.2,51.8,82,30.36,6.2,SW,8.1,-,N/A,,Unknown,220,2013-07-05 22:20:00
11:50 PM,55.4,51.8,88,30.36,-9999.0,WSW,5.8,-,N/A,,Clear,240,2013-07-05 22:50:00